QTR8837 LEZL-EBLG

Flight info

Callsign QTR8837
Flight time 2h 15m
Altitude 36000
Route HIJ DCT PARKA DCT SOTUK DCT USOKO DCT TLD DCT SIE DCT EDIGO DCT DGO L176 LUSEM DCT LULUT DCT ADABI DCT BOKNO DCT DEVRO DCT VANAD DCT PIWIZ DCT VADOM DCT BAMES DCT PODEM DCT BAZOS DCT SOMIL DCT PERON DCT CMB DCT ROBAL UM617 CIV
Aircraft B77L/H-SDE1E2E3FGHIJ2J3J4J5M1RWXY/LB1D1

Departure

Time 2026-04-26 10:22
Airport Seville Airport (LEZL)

Arrival

Time 2026-04-26 12:38
Airport Liège Airport (EBLG)
Time Latitude Longitude Altitude Speed Heading
2026-04-26 10:06 37.42176 -5.89748 98 ft 0 kts 262°
2026-04-26 10:16 37.42176 -5.89751 98 ft 2 kts 268°
2026-04-26 10:17 37.42189 -5.89772 98 ft 9 kts 312°
2026-04-26 10:17 37.42201 -5.89836 98 ft 9 kts 233°
2026-04-26 10:17 37.42141 -5.89913 98 ft 11 kts 225°
2026-04-26 10:17 37.42101 -5.89963 98 ft 12 kts 224°
2026-04-26 10:18 37.42055 -5.90046 98 ft 11 kts 257°
2026-04-26 10:18 37.42009 -5.90094 99 ft 8 kts 197°
2026-04-26 10:18 37.41981 -5.90152 100 ft 8 kts 266°
2026-04-26 10:18 37.41980 -5.90239 99 ft 13 kts 270°
2026-04-26 10:19 37.41980 -5.90367 99 ft 15 kts 270°
2026-04-26 10:19 37.41980 -5.90498 98 ft 15 kts 270°
2026-04-26 10:19 37.41979 -5.90628 97 ft 15 kts 269°
2026-04-26 10:19 37.41978 -5.90759 96 ft 15 kts 269°
2026-04-26 10:20 37.41978 -5.90890 95 ft 15 kts 270°
2026-04-26 10:20 37.41978 -5.91024 94 ft 15 kts 270°
2026-04-26 10:20 37.41977 -5.91156 93 ft 12 kts 269°
2026-04-26 10:20 37.41969 -5.91259 93 ft 12 kts 252°
2026-04-26 10:21 37.41905 -5.91310 93 ft 12 kts 173°
2026-04-26 10:21 37.41842 -5.91245 94 ft 12 kts 123°
2026-04-26 10:21 37.41800 -5.91155 94 ft 12 kts 117°
2026-04-26 10:21 37.41788 -5.91053 96 ft 14 kts 90°
2026-04-26 10:22 37.41789 -5.90766 98 ft 61 kts 90°
2026-04-26 10:22 37.41792 -5.89921 103 ft 131 kts 90°
2026-04-26 10:22 37.41795 -5.88527 163 ft 179 kts 90°
2026-04-26 10:22 37.41788 -5.86948 763 ft 181 kts 90°
2026-04-26 10:23 37.41773 -5.85353 1516 ft 181 kts 89°
2026-04-26 10:23 37.41762 -5.83766 2166 ft 190 kts 90°
2026-04-26 10:23 37.41753 -5.81987 2432 ft 217 kts 87°
2026-04-26 10:23 37.42002 -5.79975 2697 ft 245 kts 77°
2026-04-26 10:24 37.42422 -5.77863 3426 ft 252 kts 70°
2026-04-26 10:24 37.43426 -5.76028 4178 ft 260 kts 43°
2026-04-26 10:24 37.44963 -5.74804 5025 ft 264 kts 29°
2026-04-26 10:24 37.46615 -5.73788 5876 ft 269 kts 28°
2026-04-26 10:25 37.48311 -5.72775 6778 ft 270 kts 28°
2026-04-26 10:25 37.50029 -5.71757 7586 ft 275 kts 28°
2026-04-26 10:25 37.51781 -5.70718 8360 ft 281 kts 28°
2026-04-26 10:25 37.53559 -5.69658 9182 ft 284 kts 28°
2026-04-26 10:26 37.55354 -5.68584 9965 ft 288 kts 29°
2026-04-26 10:26 37.57187 -5.67483 10640 ft 298 kts 28°
2026-04-26 10:26 37.59137 -5.66303 10900 ft 325 kts 28°
2026-04-26 10:26 37.61262 -5.65015 11133 ft 352 kts 28°
2026-04-26 10:27 37.63540 -5.63635 11604 ft 369 kts 28°
2026-04-26 10:27 37.65853 -5.62236 12422 ft 377 kts 27°
2026-04-26 10:27 37.68233 -5.60794 13405 ft 380 kts 27°
2026-04-26 10:27 37.70633 -5.59336 14321 ft 385 kts 27°
2026-04-26 10:28 37.73071 -5.57857 15190 ft 391 kts 27°
2026-04-26 10:28 37.75542 -5.56357 16035 ft 396 kts 27°
2026-04-26 10:28 37.78052 -5.54829 16852 ft 402 kts 27°
2026-04-26 10:28 37.80585 -5.53286 17673 ft 406 kts 27°
2026-04-26 10:29 37.83148 -5.51724 18475 ft 411 kts 27°
2026-04-26 10:29 37.85716 -5.50156 19207 ft 416 kts 26°
2026-04-26 10:29 37.88349 -5.48547 19910 ft 421 kts 26°
2026-04-26 10:29 37.91007 -5.46920 20626 ft 426 kts 26°
2026-04-26 10:30 37.93656 -5.45300 21318 ft 430 kts 26°
2026-04-26 10:30 37.96365 -5.43642 21983 ft 434 kts 26°
2026-04-26 10:30 37.99100 -5.41965 22625 ft 438 kts 26°
2026-04-26 10:30 38.01866 -5.40268 23249 ft 443 kts 26°
2026-04-26 10:31 38.04659 -5.38553 23863 ft 447 kts 26°
2026-04-26 10:31 38.07483 -5.36817 24472 ft 451 kts 26°
2026-04-26 10:31 38.10286 -5.35091 25069 ft 455 kts 26°
2026-04-26 10:31 38.13149 -5.33330 25655 ft 458 kts 26°
2026-04-26 10:32 38.16032 -5.31554 26229 ft 462 kts 26°
2026-04-26 10:32 38.18943 -5.29759 26786 ft 465 kts 26°
2026-04-26 10:32 38.21866 -5.27954 27318 ft 469 kts 26°
2026-04-26 10:32 38.24787 -5.26150 27840 ft 472 kts 26°
2026-04-26 10:33 38.27763 -5.24310 28376 ft 474 kts 26°
2026-04-26 10:33 38.30708 -5.22486 28872 ft 477 kts 26°
2026-04-26 10:33 38.33717 -5.20620 29323 ft 479 kts 26°
2026-04-26 10:33 38.36736 -5.18749 29730 ft 483 kts 26°
2026-04-26 10:34 38.39769 -5.16865 30159 ft 484 kts 26°
2026-04-26 10:34 38.42764 -5.15003 30693 ft 483 kts 26°
2026-04-26 10:34 38.45780 -5.13127 31304 ft 479 kts 26°
2026-04-26 10:34 38.48774 -5.11303 31865 ft 474 kts 22°
2026-04-26 10:35 38.51953 -5.10164 32188 ft 477 kts
2026-04-26 10:35 38.55265 -5.10201 32581 ft 475 kts 355°
2026-04-26 10:35 38.58517 -5.10638 32924 ft 476 kts 355°
2026-04-26 10:35 38.61817 -5.11054 33373 ft 474 kts 355°
2026-04-26 10:36 38.65110 -5.11434 33898 ft 471 kts 356°
2026-04-26 10:36 38.68373 -5.11784 34377 ft 469 kts 356°
2026-04-26 10:36 38.71637 -5.12118 34757 ft 469 kts 356°
2026-04-26 10:36 38.74856 -5.12442 35065 ft 470 kts 356°
2026-04-26 10:37 38.78116 -5.12769 35384 ft 470 kts 356°
2026-04-26 10:37 38.81388 -5.13099 35744 ft 470 kts 356°
2026-04-26 10:37 38.84651 -5.13432 36042 ft 471 kts 355°
2026-04-26 10:37 38.87925 -5.13766 36069 ft 472 kts 355°
2026-04-26 10:38 38.94461 -5.14306 36101 ft 468 kts
2026-04-26 10:38 38.97646 -5.13487 36125 ft 468 kts 21°
2026-04-26 10:38 39.00532 -5.11545 36150 ft 470 kts 34°
2026-04-26 10:39 39.03015 -5.08804 36120 ft 473 kts 48°
2026-04-26 10:39 39.04928 -5.05372 36150 ft 472 kts 57°
2026-04-26 10:39 39.08250 -4.98109 36144 ft 474 kts 59°
2026-04-26 10:40 39.11630 -4.90832 36131 ft 473 kts 57°
2026-04-26 10:40 39.15093 -4.83611 36144 ft 472 kts 57°
2026-04-26 10:41 39.18892 -4.76736 36142 ft 470 kts 43°
2026-04-26 10:41 39.24179 -4.71904 36131 ft 471 kts 24°
2026-04-26 10:42 39.30265 -4.68761 36156 ft 471 kts 21°
2026-04-26 10:42 39.36388 -4.65697 36156 ft 471 kts 21°
2026-04-26 10:43 39.42473 -4.62560 36159 ft 471 kts 22°
2026-04-26 10:43 39.48518 -4.59393 36160 ft 470 kts 22°
2026-04-26 10:44 39.54596 -4.56194 36166 ft 470 kts 22°
2026-04-26 10:44 39.60669 -4.52995 36167 ft 470 kts 22°
2026-04-26 10:45 39.66694 -4.49818 36164 ft 471 kts 22°
2026-04-26 10:45 39.72767 -4.46612 36166 ft 471 kts 22°
2026-04-26 10:46 39.78855 -4.43391 36177 ft 471 kts 22°
2026-04-26 10:46 39.84920 -4.40151 36178 ft 471 kts 22°
2026-04-26 10:47 39.90985 -4.36887 36175 ft 471 kts 22°
2026-04-26 10:47 39.97010 -4.33643 36176 ft 471 kts 22°
2026-04-26 10:48 40.02997 -4.30146 36182 ft 471 kts 25°
2026-04-26 10:48 40.08921 -4.26464 36184 ft 471 kts 25°
2026-04-26 10:49 40.14804 -4.22819 36184 ft 471 kts 25°
2026-04-26 10:49 40.20747 -4.19175 36183 ft 471 kts 25°
2026-04-26 10:50 40.25683 -4.16155 36183 ft 471 kts 25°
2026-04-26 10:50 40.32627 -4.11897 36189 ft 471 kts 25°
2026-04-26 10:51 40.41507 -4.06441 36188 ft 471 kts 25°
2026-04-26 10:52 40.47443 -4.02783 36197 ft 472 kts 25°
2026-04-26 10:52 40.53397 -3.99107 36189 ft 471 kts 25°
2026-04-26 10:53 40.59343 -3.95426 36198 ft 472 kts 25°
2026-04-26 10:53 40.65290 -3.91737 36203 ft 472 kts 25°
2026-04-26 10:54 40.74169 -3.86220 36215 ft 472 kts 25°
2026-04-26 10:54 40.80115 -3.82515 36210 ft 471 kts 25°
2026-04-26 10:55 40.86055 -3.78808 36212 ft 471 kts 25°
2026-04-26 10:55 40.90986 -3.75723 36212 ft 471 kts 25°
2026-04-26 10:56 40.97901 -3.71388 36200 ft 471 kts 25°
2026-04-26 10:56 41.03835 -3.67662 36198 ft 471 kts 25°
2026-04-26 10:57 41.09715 -3.63960 36197 ft 471 kts 25°
2026-04-26 10:57 41.15648 -3.60241 36192 ft 471 kts 24°
2026-04-26 10:58 41.21697 -3.56864 36199 ft 471 kts 22°
2026-04-26 10:58 41.27782 -3.53605 36194 ft 471 kts 22°
2026-04-26 10:59 41.33855 -3.50306 36194 ft 471 kts 22°
2026-04-26 10:59 41.39881 -3.46995 36198 ft 471 kts 22°
2026-04-26 11:00 41.45945 -3.43658 36197 ft 471 kts 22°
2026-04-26 11:00 41.52027 -3.40305 36207 ft 472 kts 22°
2026-04-26 11:01 41.58108 -3.36952 36203 ft 473 kts 22°
2026-04-26 11:01 41.64143 -3.33619 36202 ft 472 kts 22°
2026-04-26 11:02 41.70229 -3.30251 36201 ft 472 kts 22°
2026-04-26 11:02 41.76275 -3.26895 36193 ft 472 kts 22°
2026-04-26 11:03 41.81368 -3.24064 36198 ft 472 kts 22°
2026-04-26 11:03 41.87409 -3.20701 36186 ft 472 kts 22°
2026-04-26 11:04 41.93493 -3.17308 36195 ft 472 kts 22°
2026-04-26 11:04 41.99572 -3.13906 36187 ft 473 kts 22°
2026-04-26 11:05 42.05624 -3.10509 36188 ft 473 kts 22°
2026-04-26 11:05 42.11719 -3.07089 36201 ft 474 kts 22°
2026-04-26 11:06 42.17782 -3.03679 36185 ft 474 kts 22°
2026-04-26 11:06 42.23877 -3.00241 36206 ft 474 kts 22°
2026-04-26 11:07 42.29976 -2.96796 36202 ft 474 kts 22°
2026-04-26 11:07 42.36039 -2.93361 36205 ft 474 kts 22°
2026-04-26 11:08 42.42119 -2.89842 36207 ft 475 kts 26°
2026-04-26 11:08 42.47717 -2.85183 36215 ft 476 kts 36°
2026-04-26 11:09 42.52752 -2.79325 36202 ft 477 kts 41°
2026-04-26 11:09 42.57680 -2.73265 36195 ft 478 kts 41°
2026-04-26 11:10 42.62626 -2.67224 36186 ft 478 kts 41°
2026-04-26 11:10 42.67558 -2.61247 36198 ft 478 kts 41°
2026-04-26 11:11 42.72539 -2.55206 36195 ft 478 kts 41°
2026-04-26 11:11 42.77475 -2.49206 36197 ft 478 kts 41°
2026-04-26 11:12 42.82438 -2.43157 36210 ft 478 kts 41°
2026-04-26 11:12 42.87391 -2.37106 36197 ft 477 kts 41°
2026-04-26 11:13 42.92334 -2.31050 36203 ft 477 kts 41°
2026-04-26 11:13 42.97252 -2.25014 36204 ft 477 kts 41°
2026-04-26 11:14 43.02159 -2.18967 36205 ft 476 kts 41°
2026-04-26 11:14 43.06837 -2.13176 36186 ft 476 kts 41°
2026-04-26 11:15 43.11746 -2.07091 36205 ft 475 kts 41°
2026-04-26 11:15 43.16625 -2.01040 36202 ft 475 kts 41°
2026-04-26 11:16 43.21533 -1.94939 36202 ft 474 kts 41°
2026-04-26 11:16 43.26420 -1.88849 36209 ft 474 kts 41°
2026-04-26 11:17 43.31404 -1.83001 36214 ft 473 kts 35°
2026-04-26 11:17 43.37005 -1.78362 36212 ft 471 kts 27°
2026-04-26 11:18 43.42633 -1.73708 36212 ft 472 kts 32°
2026-04-26 11:18 43.48095 -1.68682 36211 ft 471 kts 33°
2026-04-26 11:19 43.53536 -1.63655 36213 ft 471 kts 33°
2026-04-26 11:19 43.58986 -1.58679 36211 ft 471 kts 32°
2026-04-26 11:20 43.63537 -1.54543 36213 ft 471 kts 32°
2026-04-26 11:20 43.69923 -1.48733 36211 ft 471 kts 32°
2026-04-26 11:21 43.75365 -1.43768 36212 ft 470 kts 32°
2026-04-26 11:21 43.80838 -1.38761 36215 ft 470 kts 32°
2026-04-26 11:22 43.86274 -1.33777 36212 ft 471 kts 32°
2026-04-26 11:22 43.91746 -1.28748 36211 ft 471 kts 32°
2026-04-26 11:23 43.97179 -1.23744 36212 ft 471 kts 32°
2026-04-26 11:23 44.02647 -1.18697 36213 ft 470 kts 32°
2026-04-26 11:24 44.08067 -1.13683 36212 ft 469 kts 32°
2026-04-26 11:24 44.13508 -1.08639 36214 ft 469 kts 32°
2026-04-26 11:25 44.18927 -1.03603 36213 ft 469 kts 32°
2026-04-26 11:25 44.24345 -0.98555 36211 ft 469 kts 32°
2026-04-26 11:26 44.29780 -0.93480 36214 ft 469 kts 32°
2026-04-26 11:26 44.35179 -0.88429 36212 ft 469 kts 32°
2026-04-26 11:27 44.40699 -0.83524 36209 ft 469 kts 27°
2026-04-26 11:27 44.46600 -0.79773 36213 ft 468 kts 22°
2026-04-26 11:28 44.52611 -0.76190 36214 ft 468 kts 22°
2026-04-26 11:28 44.58558 -0.72605 36212 ft 468 kts 22°
2026-04-26 11:29 44.64535 -0.68956 36211 ft 467 kts 22°
2026-04-26 11:29 44.70497 -0.65294 36214 ft 467 kts 22°
2026-04-26 11:30 44.75458 -0.62237 36212 ft 468 kts 22°
2026-04-26 11:30 44.82407 -0.57946 36213 ft 468 kts 22°
2026-04-26 11:31 44.88377 -0.54254 36212 ft 468 kts 22°
2026-04-26 11:31 44.94321 -0.50568 36212 ft 468 kts 22°
2026-04-26 11:32 45.00255 -0.46879 36211 ft 468 kts 22°
2026-04-26 11:32 45.06233 -0.43154 36214 ft 468 kts 22°
2026-04-26 11:33 45.12160 -0.39457 36213 ft 468 kts 22°
2026-04-26 11:33 45.18133 -0.35720 36210 ft 467 kts 22°
2026-04-26 11:34 45.24068 -0.31999 36213 ft 467 kts 22°
2026-04-26 11:34 45.30019 -0.28257 36212 ft 468 kts 22°
2026-04-26 11:35 45.35944 -0.24522 36212 ft 468 kts 22°
2026-04-26 11:35 45.40936 -0.21368 36212 ft 467 kts 22°
2026-04-26 11:36 45.47869 -0.16980 36211 ft 467 kts 22°
2026-04-26 11:36 45.53788 -0.13226 36212 ft 467 kts 22°
2026-04-26 11:37 45.59739 -0.09445 36213 ft 467 kts 22°
2026-04-26 11:37 45.65671 -0.05662 36211 ft 468 kts 22°
2026-04-26 11:38 45.71584 -0.01884 36213 ft 468 kts 22°
2026-04-26 11:38 45.77532 0.01924 36212 ft 467 kts 22°
2026-04-26 11:39 45.83416 0.05704 36206 ft 458 kts 22°
2026-04-26 11:39 45.89190 0.09419 36214 ft 458 kts 22°
2026-04-26 11:40 45.95039 0.13189 36214 ft 460 kts 22°
2026-04-26 11:40 46.00842 0.16940 36212 ft 460 kts 22°
2026-04-26 11:42 46.24184 0.32115 36212 ft 461 kts 23°
2026-04-26 11:43 46.30003 0.35921 36212 ft 461 kts 23°
2026-04-26 11:43 46.35866 0.39763 36210 ft 461 kts 23°
2026-04-26 11:44 46.41685 0.43586 36213 ft 461 kts 22°
2026-04-26 11:44 46.47512 0.47427 36212 ft 462 kts 23°
2026-04-26 11:45 46.53391 0.51303 36212 ft 463 kts 22°
2026-04-26 11:45 46.59467 0.54336 36210 ft 461 kts 12°
2026-04-26 11:46 46.65698 0.56345 36214 ft 461 kts 11°
2026-04-26 11:46 46.71976 0.58340 36209 ft 461 kts 11°
2026-04-26 11:47 46.78251 0.60396 36215 ft 461 kts 11°
2026-04-26 11:47 46.84488 0.62464 36213 ft 461 kts 11°
2026-04-26 11:48 46.90769 0.64552 36211 ft 462 kts 11°
2026-04-26 11:48 46.97016 0.66634 36211 ft 462 kts 11°
2026-04-26 11:49 47.03301 0.68716 36215 ft 462 kts 10°
2026-04-26 11:49 47.09660 0.69847 36214 ft 461 kts
2026-04-26 11:50 47.16024 0.70434 36211 ft 460 kts
2026-04-26 11:50 47.22419 0.71047 36214 ft 460 kts
2026-04-26 11:51 47.28824 0.71709 36213 ft 460 kts
2026-04-26 11:51 47.35187 0.72380 36212 ft 460 kts
2026-04-26 11:52 47.40501 0.72941 36213 ft 460 kts
2026-04-26 11:52 47.46899 0.73647 36214 ft 461 kts
2026-04-26 11:53 47.53181 0.75526 36208 ft 464 kts 15°
2026-04-26 11:54 47.62395 0.80131 36213 ft 465 kts 17°
2026-04-26 11:54 47.68500 0.83183 36217 ft 463 kts 16°
2026-04-26 11:55 47.74623 0.86207 36223 ft 464 kts 16°
2026-04-26 11:55 47.80731 0.89227 36221 ft 464 kts 16°
2026-04-26 11:56 47.86873 0.92284 36222 ft 464 kts 16°
2026-04-26 11:56 47.93002 0.95384 36227 ft 464 kts 17°
2026-04-26 11:57 47.99083 0.98473 36228 ft 464 kts 17°
2026-04-26 11:57 48.05202 1.01582 36228 ft 463 kts 16°
2026-04-26 11:58 48.11278 1.04676 36238 ft 463 kts 16°
2026-04-26 11:58 48.17393 1.07796 36240 ft 464 kts 16°
2026-04-26 11:59 48.23519 1.10929 36239 ft 464 kts 16°
2026-04-26 11:59 48.29599 1.14026 36237 ft 463 kts 16°
2026-04-26 12:00 48.35709 1.17142 36242 ft 464 kts 16°
2026-04-26 12:00 48.41830 1.20275 36249 ft 464 kts 16°
2026-04-26 12:01 48.47956 1.23421 36250 ft 464 kts 16°
2026-04-26 12:01 48.54040 1.26552 36256 ft 464 kts 16°
2026-04-26 12:02 48.60164 1.29666 36262 ft 464 kts 15°
2026-04-26 12:02 48.66296 1.32745 36258 ft 464 kts 15°
2026-04-26 12:03 48.72397 1.35822 36258 ft 464 kts 16°
2026-04-26 12:03 48.78534 1.38932 36258 ft 464 kts 16°
2026-04-26 12:04 48.84629 1.42029 36265 ft 464 kts 16°
2026-04-26 12:04 48.90766 1.45157 36267 ft 464 kts 16°
2026-04-26 12:05 48.96907 1.48214 36267 ft 463 kts 13°
2026-04-26 12:05 49.03183 1.50055 36275 ft 460 kts
2026-04-26 12:06 49.09510 1.51432 36269 ft 461 kts
2026-04-26 12:06 49.15868 1.52888 36268 ft 461 kts
2026-04-26 12:07 49.22208 1.54484 36266 ft 462 kts 12°
2026-04-26 12:07 49.28081 1.58504 36275 ft 470 kts 30°
2026-04-26 12:08 49.33069 1.65103 36269 ft 476 kts 41°
2026-04-26 12:08 49.37794 1.72265 36274 ft 476 kts 41°
2026-04-26 12:09 49.42537 1.79320 36275 ft 476 kts 40°
2026-04-26 12:09 49.47307 1.86322 36285 ft 476 kts 40°
2026-04-26 12:10 49.52099 1.93377 36292 ft 476 kts 40°
2026-04-26 12:10 49.56874 2.00450 36298 ft 476 kts 40°
2026-04-26 12:11 49.61655 2.07557 36294 ft 477 kts 40°
2026-04-26 12:11 49.66318 2.14762 36281 ft 479 kts 44°
2026-04-26 12:12 49.70701 2.22561 36291 ft 480 kts 46°
2026-04-26 12:12 49.74986 2.30411 36297 ft 480 kts 46°
2026-04-26 12:13 49.79322 2.38273 36294 ft 480 kts 46°
2026-04-26 12:13 49.83687 2.46136 36296 ft 480 kts 46°
2026-04-26 12:14 49.88045 2.53985 36293 ft 480 kts 46°
2026-04-26 12:14 49.92372 2.61808 36297 ft 480 kts 46°
2026-04-26 12:15 49.96721 2.69701 36301 ft 480 kts 46°
2026-04-26 12:15 50.01069 2.77614 36294 ft 480 kts 46°
2026-04-26 12:16 50.05389 2.85497 36296 ft 482 kts 46°
2026-04-26 12:16 50.09741 2.93470 36287 ft 482 kts 46°
2026-04-26 12:17 50.14062 3.01413 36299 ft 482 kts 46°
2026-04-26 12:17 50.18384 3.09379 35975 ft 480 kts 46°
2026-04-26 12:17 50.20549 3.13376 35670 ft 481 kts 46°
2026-04-26 12:18 50.22690 3.17334 35338 ft 482 kts 46°
2026-04-26 12:18 50.24854 3.21341 35025 ft 483 kts 46°
2026-04-26 12:18 50.27027 3.25370 34704 ft 483 kts 46°
2026-04-26 12:18 50.29197 3.29401 34415 ft 483 kts 46°
2026-04-26 12:19 50.31359 3.33428 34105 ft 483 kts 46°
2026-04-26 12:19 50.33523 3.37463 33764 ft 483 kts 46°
2026-04-26 12:19 50.35659 3.41450 33400 ft 482 kts 46°
2026-04-26 12:19 50.37792 3.45444 32654 ft 477 kts 46°
2026-04-26 12:20 50.39937 3.49462 31435 ft 482 kts 46°
2026-04-26 12:20 50.42107 3.53529 30153 ft 486 kts 46°
2026-04-26 12:20 50.44269 3.57589 29244 ft 482 kts 46°
2026-04-26 12:20 50.46401 3.61604 28511 ft 473 kts 46°
2026-04-26 12:21 50.48481 3.65562 27762 ft 466 kts 47°
2026-04-26 12:21 50.50465 3.69477 26974 ft 461 kts 48°
2026-04-26 12:21 50.52434 3.73420 26205 ft 452 kts 48°
2026-04-26 12:21 50.54351 3.77250 25579 ft 442 kts 48°
2026-04-26 12:22 50.56252 3.81028 24978 ft 438 kts 49°
2026-04-26 12:22 50.57876 3.85025 24365 ft 439 kts 64°
2026-04-26 12:22 50.58823 3.89590 23822 ft 435 kts 71°
2026-04-26 12:22 50.59639 3.94169 23241 ft 433 kts 71°
2026-04-26 12:23 50.60453 3.98719 22673 ft 430 kts 71°
2026-04-26 12:23 50.61280 4.03244 22108 ft 427 kts 71°
2026-04-26 12:23 50.62106 4.07679 21558 ft 425 kts 71°
2026-04-26 12:23 50.62673 4.10684 21171 ft 423 kts 71°
2026-04-26 12:24 50.63525 4.15245 20613 ft 419 kts 73°
2026-04-26 12:24 50.64021 4.19765 20065 ft 418 kts 84°
2026-04-26 12:25 50.63444 4.28791 18970 ft 413 kts 105°
2026-04-26 12:25 50.62419 4.32923 18403 ft 398 kts 116°
2026-04-26 12:25 50.61100 4.36666 17847 ft 383 kts 121°
2026-04-26 12:25 50.59735 4.40193 17233 ft 370 kts 122°
2026-04-26 12:26 50.58388 4.43595 16443 ft 361 kts 122°
2026-04-26 12:26 50.57062 4.46921 15542 ft 357 kts 122°
2026-04-26 12:26 50.55759 4.50176 14637 ft 353 kts 122°
2026-04-26 12:26 50.54451 4.53424 13747 ft 349 kts 122°
2026-04-26 12:27 50.53154 4.56622 12898 ft 343 kts 122°
2026-04-26 12:27 50.51879 4.59754 12031 ft 338 kts 122°
2026-04-26 12:27 50.50630 4.62860 11156 ft 333 kts 118°
2026-04-26 12:27 50.49937 4.66249 10468 ft 322 kts 94°
2026-04-26 12:28 50.49899 4.69686 10003 ft 305 kts 90°
2026-04-26 12:28 50.49843 4.72917 9499 ft 294 kts 91°
2026-04-26 12:28 50.49757 4.76074 8944 ft 286 kts 92°
2026-04-26 12:28 50.49661 4.79182 8357 ft 280 kts 92°
2026-04-26 12:29 50.49567 4.82162 7973 ft 266 kts 92°
2026-04-26 12:29 50.49477 4.84996 7588 ft 254 kts 92°
2026-04-26 12:29 50.49306 4.90351 6800 ft 242 kts 92°
2026-04-26 12:30 50.49226 4.92962 6424 ft 233 kts 92°
2026-04-26 12:30 50.49143 4.95511 6082 ft 231 kts 92°
2026-04-26 12:30 50.49062 4.97971 5792 ft 224 kts 92°
2026-04-26 12:31 50.48908 5.02703 5054 ft 206 kts 92°
2026-04-26 12:31 50.48840 5.04875 4774 ft 194 kts 92°
2026-04-26 12:31 50.48772 5.06987 4467 ft 193 kts 92°
2026-04-26 12:31 50.48702 5.09027 4255 ft 183 kts 92°
2026-04-26 12:32 50.48638 5.10945 4259 ft 171 kts 92°
2026-04-26 12:32 50.48575 5.12905 4287 ft 190 kts 92°
2026-04-26 12:32 50.48429 5.17104 4258 ft 190 kts 92°
2026-04-26 12:33 50.48381 5.19189 4202 ft 190 kts 83°
2026-04-26 12:33 50.48914 5.20982 4089 ft 185 kts 45°
2026-04-26 12:33 50.49853 5.22414 4085 ft 192 kts 45°
2026-04-26 12:33 50.50788 5.23913 3832 ft 191 kts 45°
2026-04-26 12:34 50.51709 5.25383 3652 ft 188 kts 45°
2026-04-26 12:34 50.52626 5.26834 3429 ft 185 kts 45°
2026-04-26 12:34 50.53520 5.28248 3203 ft 184 kts 45°
2026-04-26 12:34 50.54423 5.29690 2961 ft 185 kts 45°
2026-04-26 12:35 50.55307 5.31090 2735 ft 175 kts 45°
2026-04-26 12:35 50.56155 5.32435 2487 ft 168 kts 44°
2026-04-26 12:35 50.56941 5.33662 2267 ft 148 kts 44°
2026-04-26 12:35 50.57655 5.34780 2096 ft 141 kts 44°
2026-04-26 12:36 50.58111 5.35507 1907 ft 140 kts 44°
2026-04-26 12:36 50.59022 5.36970 1677 ft 142 kts 44°
2026-04-26 12:36 50.59713 5.38081 1487 ft 142 kts 44°
2026-04-26 12:36 50.60409 5.39177 1378 ft 142 kts 43°
2026-04-26 12:37 50.61109 5.40263 1168 ft 142 kts 43°
2026-04-26 12:37 50.61576 5.40987 1019 ft 141 kts 43°
2026-04-26 12:37 50.62271 5.42080 858 ft 142 kts 44°
2026-04-26 12:37 50.62971 5.43190 685 ft 143 kts 44°
2026-04-26 12:38 50.63614 5.44210 630 ft 110 kts 45°
2026-04-26 12:38 50.64024 5.44859 607 ft 63 kts 45°
2026-04-26 12:38 50.64286 5.45273 602 ft 39 kts 45°
2026-04-26 12:38 50.64417 5.45446 609 ft 17 kts 13°
2026-04-26 12:39 50.64539 5.45445 611 ft 17 kts 359°
2026-04-26 12:39 50.64586 5.45328 611 ft 16 kts 236°
2026-04-26 12:39 50.64508 5.45199 610 ft 17 kts 225°
2026-04-26 12:39 50.64423 5.45062 609 ft 18 kts 225°
2026-04-26 12:40 50.64333 5.44921 609 ft 18 kts 225°
2026-04-26 12:40 50.64244 5.44780 613 ft 18 kts 225°
2026-04-26 12:40 50.64155 5.44639 617 ft 18 kts 225°
2026-04-26 12:40 50.64067 5.44499 626 ft 18 kts 225°
2026-04-26 12:41 50.63978 5.44358 630 ft 18 kts 225°
2026-04-26 12:41 50.63885 5.44211 633 ft 21 kts 225°
2026-04-26 12:41 50.63774 5.44035 632 ft 23 kts 225°
2026-04-26 12:41 50.63663 5.43858 631 ft 23 kts 225°
2026-04-26 12:42 50.63563 5.43696 635 ft 18 kts 234°
2026-04-26 12:42 50.63607 5.43532 640 ft 16 kts 315°
2026-04-26 12:42 50.63642 5.43406 643 ft 13 kts 249°
2026-04-26 12:42 50.63587 5.43312 643 ft 7 kts 225°
2026-04-26 12:43 50.63591 5.43255 643 ft 4 kts 317°
2026-04-26 12:43 50.63617 5.43223 643 ft 5 kts 317°
2026-04-26 12:43 50.63645 5.43182 643 ft 5 kts 316°
2026-04-26 12:43 50.63655 5.43166 643 ft 0 kts 315°